Tracking 28091 objects as of 30-Sep-2023
HD Live streaming from Space Station
objects crossing your sky now

STARLINK-1611

Track STARLINK-1611 now!
10-day predictions
STARLINK-1611 is classified as:


NORAD ID: 46147
Int'l Code: 2020-057AG
Perigee: 553.3 km
Apogee: 555.4 km
Inclination: 53.1 °
Period: 95.6 minutes
Semi major axis: 6925 km
RCS: Unknown
Launch date: August 18, 2020
Source: United States (US)
Launch site: AIR FORCE EASTERN TEST RANGE (AFETR)
Your satellite tracking list
Your tracking list is empty




NASA's NSSDC Master Catalog

Two Line Element Set (TLE):
1 46147U 20057AG  23272.93525913  .00006259  00000-0  43870-3 0  9996
2 46147  53.0567 359.8587 0001560 107.7098 252.4061 15.06399212172311
Source of the keplerian elements: AFSPC